Regional Weather Roundup
Issued by NWS

Home | Current Version | Previous Version | Graphics & Text | Print | Product List | Glossary On
Versions: 1 2 3 4 5 6 7 8 9 10 11 12 13 14 15 16 17 18 19 20 21 22 23 24 25 26 27 28 29 30 31 32 33 34 35 36 37 38 39 40 41 42 43 44 45 46 47 48 49 50
000
ASUS44 KMEG 241210
RWRTN
TENNESSEE HOURLY STATE WEATHER ROUNDUP
NATIONAL WEATHER SERVICE MEMPHIS TN
600 AM CST SAT FEB 24 2018

TNZ002-004-019-021-049-052-054-088>092-241300-
WEST TENNESSEE

CITY           SKY/WX    TMP DP  RH WIND       PRES   REMARKS
MEMPHIS INTL   MOCLDY    66  65  96 S13       30.01F
NWS MEMPHIS      N/A     64 N/A N/A MISG        N/A
JACKSON        CLOUDY    65  65 100 S10       30.03S
DYERSBURG      CLOUDY    59  59 100 S6          N/A  FOG
COVINGTON      CLOUDY    63  63 100 S9        30.01F
UNION CITY     CLOUDY    57  57 100 S7        29.99F FOG
BOLIVAR        CLOUDY    66  64  94 S7G14     30.04S FOG
PARIS          CLOUDY    59  59 100 S6        30.01S FOG
LEXINGTON      CLOUDY    63  63 100 S9        30.05R
SELMER         CLOUDY    64  64 100 SW5       30.06R
SAVANNAH       CLOUDY    66  64  94 SW9       30.06R
$$

TNZ008-025-027-028-033-062-065-066-241300-
NORTH MIDDLE TENNESSEE

CITY           SKY/WX    TMP DP  RH WIND       PRES   REMARKS
NASHVILLE      CLOUDY    62  60  93 S6        30.06S
PORTLAND       CLOUDY    59  59 100 S8        30.04S
CLARKSVILLE    CLOUDY    58  56  93 CALM      30.03R
SMYRNA         CLOUDY    62  60  93 S5        30.07S
COOKEVILLE     CLOUDY    61  59  94 S8        30.09S
GALLATIN       CLOUDY    59  59 100 CALM      30.08S
CROSSVILLE     CLOUDY    60  58  92 VRB3      30.15S
$$

TNZ061-075-076-078-094-096-097-241300-
SOUTH MIDDLE TENNESSEE

CITY           SKY/WX    TMP DP  RH WIND       PRES   REMARKS
FAYETTEVILLE   MOCLDY    64  63  94 S10       30.09S FOG
TULLAHOMA      MOCLDY    61  59  94 SE5       30.09F
WINCHESTER     CLOUDY    64  61  88 S6        30.11S
MCMINNVILLE    CLOUDY    61  59  94 CALM      30.10S
COLUMBIA       CLOUDY    64  64 100 S12       30.04S
SHELBYVILLE    CLOUDY    63  61  94 S8        30.08S
$$

TNZ017-018-042-046-047-241300-
NORTHEAST TENNESSEE

CITY           SKY/WX    TMP DP  RH WIND       PRES   REMARKS
TRI CITIES     CLOUDY    58  55  90 CALM      30.15F
ELIZABETHTON   CLOUDY    59  52  77 CALM      30.17F
$$

TNZ012-013-036-069-073-074-241300-
CENTRAL EAST TENNESSEE

CITY           SKY/WX    TMP DP  RH WIND       PRES   REMARKS
KNOXVILLE      CLOUDY    63  60  90 W5        30.13R
OAK RIDGE      CLOUDY    62  62 100 CALM      30.15S
DOWNTOWN KNOXV CLOUDY    59  59 100 CALM      30.14F FOG
GATLINBURG     CLOUDY    63  55  77 CALM      30.13S
JACKSBORO      CLOUDY    63  59  88 CALM      30.16S
$$

TNZ083-085-099-241300-
SOUTHEAST TENNESSEE

CITY           SKY/WX    TMP DP  RH WIND       PRES   REMARKS
CHATTANOOGA    MOCLDY    68  60  75 S6        30.14R
$$

SKY/WX REPORTED AS FAIR MEANS FEW OR NO CLOUDS BELOW
12 THOUSAND FEET.




USA.gov is the U.S. government's official web portal to all federal, state and local government web resources and services.